[[{"header":{"parameterUnit":"m.s-1","parameterCategory":1,"la1":30.2991,"la2":30.254,"lo1":-89.0895,"lo2":-89.0444,"dy":0.0017,"dx":0.0017,"nx":28,"ny":28,"refTime":"2024-05-11T09:00:00:Z","depth":0,"parameterNumber":2,"parameterNumberName":"U-component_of_WINDS"},"data":[0,0,0,0,0,0,0,0,0,0,0,0,0,0,0,0,0,0,0,0,0,0,0,0,0,0,0,0,0,0,0,0,0,0,0,0,0,0,0,0,0,0,0,0,0,0,0,0,0,0,0,0,0,0,0,0,0,0,-6.479,-6.4791,0,-6.4886,-6.4887,-6.4888,-6.4773,-6.4769,-6.4765,-6.4761,-6.4859,-6.4866,-6.4872,0,0,0,0,0,0,0,0,0,0,0,0,0,-6.451,-6.4515,-6.479,-6.4791,-6.4793,-6.4886,-6.4887,-6.4889,-6.4774,-6.4769,-6.4764,-6.4759,-6.4857,-6.4865,-6.4873,0,0,0,0,0,0,0,0,0,0,0,0,0,-6.4621,-6.4517,-6.479,-6.4747,-6.4744,-6.4886,-6.4887,-6.4889,-6.4775,-6.4769,-6.4762,-6.4756,-6.4855,-6.4864,-6.4874,-6.5063,0,0,-6.4904,-6.4909,0,0,0,0,0,0,0,0,-6.4615,-6.4632,-6.4752,-6.475,-6.4747,-6.4811,-6.4824,-6.4947,-6.4777,-6.4763,-6.4761,-6.4753,-6.4849,-6.4859,-6.4891,-6.5068,-6.5072,-6.4905,-6.4911,-6.4915,-6.4918,0,0,0,0,0,0,0,-6.4607,-6.4627,-6.4828,-6.4754,-6.4751,-6.4723,-6.4732,-6.4847,-6.4841,-6.4764,-6.4756,-6.4769,-6.4846,-6.4881,-6.4892,-6.5073,-6.4905,-6.4914,-6.492,-6.4924,-6.5412,-6.5418,0,0,0,0,0,0,-6.4605,-6.4621,-6.4825,-6.4831,-6.4664,-6.4733,-6.4743,-6.4797,-6.4839,-6.4839,-6.4774,-6.4763,-6.4868,-6.4881,-6.4895,-6.5118,-6.4915,-6.4925,-6.493,-6.5405,-6.5413,-6.5421,0,0,0,0,0,0,-6.4599,-6.4624,-6.4821,-6.4724,-6.4747,-6.4745,-6.4807,-6.4802,-6.4837,-6.4847,-6.4845,-6.4811,-6.4863,-6.4881,-6.5022,-6.512,-6.4929,-6.4938,-6.5397,-6.5407,-6.5417,-6.5567,0,0,0,0,0,0,-6.4591,-6.4622,-6.4693,-6.4726,-6.4753,-6.4946,-6.4813,-6.4809,-6.4855,-6.4841,-6.4881,-6.4882,-6.4859,-6.5008,-6.5032,-6.513,-6.4946,-6.5388,-6.5401,-6.5414,-6.5553,-6.5582,-6.5606,0,0,0,0,0,-6.4582,-6.4732,-6.4698,-6.4723,-6.4841,-6.4952,-6.4967,-6.4938,-6.4863,-6.4935,-6.4941,-6.488,-6.5107,-6.5024,-6.505,-6.5152,-6.5381,-6.5397,-6.5413,-6.5542,-6.5576,-6.5605,0,0,0,0,0,0,-6.4709,-6.4735,-6.4697,-6.4863,-6.4907,-6.4933,-6.5021,-6.4976,-6.5041,-6.5026,-6.4988,-6.4998,-6.5148,-6.5165,-6.5072,-6.5338,-6.5232,-6.5254,-6.5321,-6.5354,-6.5379,-6.537,-6.4954,0,0,0,0,0,-6.4757,-6.4845,-6.4863,-6.5007,-6.5031,-6.5024,-6.5071,-6.5045,-6.5089,-6.5106,-6.5123,-6.5168,-6.5249,-6.5303,-6.5378,-6.5557,-6.5564,-6.5641,-6.5667,-6.5689,-6.5707,-6.5803,-6.5837,-6.5473,-6.5473,-6.5472,0,0,-6.4856,-6.4881,-6.4938,-6.5033,-6.5064,-6.5156,-6.5039,-6.5141,-6.5209,-6.5122,-6.5255,-6.527,-6.5318,-6.5479,-6.5551,-6.5497,-6.581,-6.5709,-6.5726,-6.5732,-6.5822,-6.5857,-6.5888,-6.5484,-6.5482,-6.548,0,0,-6.5081,-6.511,-6.5232,-6.5267,-6.5315,-6.531,-6.534,-6.5375,-6.5381,-6.5515,-6.5452,-6.5533,-6.5674,-6.571,-6.5747,-6.5992,-6.5938,-6.6018,-6.6153,-6.6247,-6.6276,-6.6301,-6.6386,-6.6418,-6.6037,-6.6038,-6.6038,0,-6.5197,-6.5332,-6.5301,-6.5408,-6.5452,-6.538,-6.5504,-6.5539,-6.561,-6.5642,-6.5582,-6.5758,-6.5785,-6.5954,-6.6014,-6.6047,-6.608,-6.6011,-6.6274,-6.6299,-6.6322,-6.6403,-6.6436,-6.6047,-6.6046,-6.6045,-6.6044,0,-6.5472,-6.5567,-6.5661,-6.5731,-6.5786,-6.5902,-6.5889,-6.5949,-6.5921,-6.5922,-6.6061,-6.6092,-6.6172,-6.6211,-6.6184,-6.6377,-6.6342,-6.628,-6.6171,-6.6366,-6.6442,-6.6473,-6.606,-6.6056,-6.6054,-6.6051,0,0,-6.5775,-6.583,-6.5864,-6.5896,-6.5947,-6.602,-6.6134,-6.6212,-6.6264,-6.6317,-6.641,-6.6534,-6.6476,-6.6519,-6.6496,-6.658,-6.677,-6.6506,-6.6507,-6.6552,-6.6983,-6.7027,-6.7064,-6.6737,-6.6743,-6.6747,-6.6978,0,-6.5999,-6.6193,-6.6171,-6.6357,-6.6445,-6.638,-6.6479,-6.6521,-6.6527,-6.6603,-6.661,-6.6696,-6.6615,-6.6641,-6.6721,-6.673,-6.6855,-6.6714,-6.6822,-6.6826,-6.6808,-6.7103,-6.715,-6.7366,-6.7008,-6.7013,-6.7017,0,-6.6284,-6.6348,-6.6543,-6.6582,-6.6618,-6.6707,-6.6778,-6.6852,-6.69,-6.6898,-6.6948,-6.6912,-6.7027,-6.692,-6.7077,-6.6981,-6.7026,-6.7038,-6.7046,-6.7051,-6.693,-6.7114,-6.7434,-6.7465,-6.7063,-6.7059,-6.7056,0,-6.6483,-6.6618,-6.6752,-6.6782,-6.6831,-6.6895,-6.6918,-6.696,-6.7009,-6.7073,-6.7105,-6.7182,-6.7223,-6.7284,-6.727,-6.7194,-6.7431,-6.7323,-6.7432,-6.7433,-6.7481,-6.7477,-6.7809,-6.7517,-6.7516,-6.7515,-6.7515,0,-6.6733,-6.6854,-6.6842,-6.6924,-6.7058,-6.7034,-6.7168,-6.7183,-6.7222,-6.7306,-6.7257,-6.7337,-6.7316,-6.7396,-6.7387,-6.7518,-6.7538,-6.754,-6.7535,-6.7542,-6.7541,-6.7567,-6.755,-6.7524,-6.7522,-6.752,-6.7519,0,-6.6974,-6.6971,-6.7113,-6.7149,-6.7161,-6.7259,-6.7289,-6.7367,-6.7372,-6.7479,-6.7503,-6.7509,-6.7602,-6.7595,-6.7699,-6.7693,-6.7855,-6.7834,-6.7838,-6.7832,-6.794,-6.7929,-6.8297,-6.8344,-6.8024,-6.8027,-6.803,0,-6.7132,-6.7223,-6.727,-6.7323,-6.7351,-6.7438,-6.7489,-6.747,-6.7525,-6.7588,-6.7659,-6.7747,-6.7815,-6.7967,-6.798,-6.806,-6.8039,-6.8163,-6.805,-6.8055,-6.8038,-6.8031,-6.8039,-6.8184,-6.8187,-6.819,-6.8193,0,-6.7411,-6.7406,-6.748,-6.7557,-6.7619,-6.7678,-6.7732,-6.7779,-6.7765,-6.783,-6.7924,-6.7978,-6.8085,-6.8173,-6.825,-6.8275,-6.8232,-6.8229,-6.8258,-6.8263,-6.8261,-6.8261,-6.7894,-6.8219,-6.8216,-6.8214,-6.8213,-6.8212,-6.7613,-6.7691,-6.7737,-6.7823,-6.7862,-6.7914,-6.7989,-6.8004,-6.8081,-6.8166,-6.8152,-6.8257,-6.8305,-6.8404,-6.8438,-6.852,-6.8476,-6.8518,-6.8528,-6.8538,-6.8549,-6.8252,-6.8535,-6.8534,-6.8533,-6.8533,-6.8532,0,-6.7886,-6.7914,-6.7993,-6.807,-6.8139,-6.8095,-6.8153,-6.8213,-6.8306,-6.8355,-6.8424,-6.8533,-6.8619,-6.8642,-6.8725,-6.8787,-6.8769,-6.8809,-6.8802,-6.8808,-6.8585,-6.855,-6.8822,-6.8822,-6.8822,-6.8822,-6.8822,-6.8822,-6.8036,-6.8167,-6.8168,-6.8318,-6.8345,-6.8447,-6.8484,-6.8533,-6.8571,-6.8695,-6.8766,-6.8781,-6.882,-6.8906,-6.8983,-6.8988,-6.902,-6.9067,-6.9063,-6.8853,-6.8824,-6.8796,-6.8763,-6.9075,-6.9075,-6.9279,-6.9281,-6.9282]},{"header":{"parameterUnit":"m.s-1","parameterCategory":1,"la1":30.2991,"la2":30.254,"lo1":-89.0895,"lo2":-89.0444,"dy":0.0017,"dx":0.0017,"nx":28,"ny":28,"refTime":"2024-05-11T09:00:00:Z","depth":0,"parameterNumber":3,"parameterNumberName":"V-component_of_WINDS"},"data":[0,0,0,0,0,0,0,0,0,0,0,0,0,0,0,0,0,0,0,0,0,0,0,0,0,0,0,0,0,0,0,0,0,0,0,0,0,0,0,0,0,0,0,0,0,0,0,0,0,0,0,0,0,0,0,0,0,0,1.7851,1.7852,0,1.7877,1.7878,1.7878,1.7849,1.7847,1.7846,1.7845,1.787,1.7872,1.7874,0,0,0,0,0,0,0,0,0,0,0,0,0,1.7776,1.7778,1.7851,1.7852,1.7852,1.7877,1.7878,1.7878,1.7849,1.7847,1.7846,1.7845,1.787,1.7872,1.7874,0,0,0,0,0,0,0,0,0,0,0,0,0,1.7806,1.7778,1.7851,1.7841,1.784,1.7877,1.7878,1.7878,1.7849,1.7847,1.7846,1.7844,1.7869,1.7872,1.7874,1.7923,0,0,1.7882,1.7883,0,0,0,0,0,0,0,0,1.7805,1.7809,1.7842,1.7841,1.7841,1.7858,1.786,1.7893,1.7849,1.7845,1.7845,1.7843,1.7867,1.787,1.7878,1.7924,1.7925,1.7882,1.7884,1.7885,1.7885,0,0,0,0,0,0,0,1.7803,1.7808,1.7862,1.7842,1.7842,1.7834,1.7837,1.7866,1.7865,1.7846,1.7844,1.7847,1.7867,1.7876,1.7879,1.7925,1.7882,1.7884,1.7886,1.7887,1.8014,1.8015,0,0,0,0,0,0,1.7802,1.7806,1.7861,1.7862,1.7818,1.7837,1.784,1.7854,1.7865,1.7865,1.7849,1.7846,1.7873,1.7876,1.788,1.7938,1.7885,1.7887,1.7889,1.8012,1.8014,1.8016,0,0,0,0,0,0,1.78,1.7807,1.786,1.7834,1.784,1.784,1.7856,1.7855,1.7865,1.7867,1.7867,1.7858,1.7871,1.7876,1.7913,1.7939,1.7888,1.789,1.801,1.8013,1.8015,1.8055,0,0,0,0,0,0,1.7798,1.7807,1.7825,1.7834,1.7841,1.7893,1.7858,1.7857,1.7869,1.7866,1.7876,1.7876,1.787,1.7909,1.7915,1.7941,1.7892,1.8007,1.8011,1.8014,1.8052,1.8059,1.8066,0,0,0,0,0,1.7796,1.7835,1.7826,1.7833,1.7865,1.7894,1.7898,1.7891,1.7872,1.789,1.7892,1.7876,1.7935,1.7913,1.792,1.7947,1.8006,1.801,1.8014,1.8049,1.8058,1.8065,0,0,0,0,0,0,1.7827,1.7836,1.7826,1.787,1.7882,1.7889,1.7912,1.7901,1.7918,1.7914,1.7904,1.7907,1.7946,1.795,1.7926,1.7995,1.7967,1.7973,1.7991,1.8,1.8007,1.8005,1.7895,0,0,0,0,0,1.784,1.7863,1.7869,1.7907,1.7913,1.7912,1.7925,1.7918,1.793,1.7935,1.7939,1.7951,1.7972,1.7986,1.8006,1.8052,1.8054,1.8074,1.8081,1.8087,1.8092,1.8118,1.8127,1.803,1.803,1.803,0,0,1.7865,1.7872,1.7888,1.7914,1.7922,1.7947,1.7916,1.7943,1.7962,1.7939,1.7974,1.7978,1.799,1.8032,1.8051,1.8037,1.8119,1.8092,1.8097,1.8099,1.8123,1.8132,1.814,1.8033,1.8032,1.8032,0,0,1.7923,1.7931,1.7964,1.7974,1.7987,1.7986,1.7995,1.8004,1.8006,1.8042,1.8025,1.8047,1.8083,1.8093,1.8103,1.8167,1.8153,1.8174,1.821,1.8235,1.8243,1.825,1.8273,1.8281,1.8179,1.8179,1.8179,0,1.7953,1.7989,1.7982,1.8011,1.8023,1.8005,1.8038,1.8047,1.8067,1.8075,1.806,1.8106,1.8113,1.8158,1.8174,1.8182,1.8191,1.8173,1.8243,1.8249,1.8255,1.8278,1.8286,1.8182,1.8181,1.8181,1.8181,0,1.8025,1.8051,1.8076,1.8096,1.8111,1.8142,1.8139,1.8155,1.8148,1.8149,1.8186,1.8194,1.8216,1.8226,1.8219,1.827,1.8261,1.8244,1.8215,1.8267,1.8288,1.8296,1.8185,1.8184,1.8184,1.8183,0,0,1.8103,1.812,1.8129,1.8139,1.8153,1.8173,1.8204,1.8225,1.824,1.8254,1.8279,1.8312,1.8297,1.8308,1.8302,1.8324,1.8375,1.8305,1.8305,1.8318,1.8433,1.8446,1.8456,1.8366,1.8368,1.8369,1.8432,0,1.8162,1.8215,1.821,1.8261,1.8285,1.8269,1.8295,1.8307,1.8309,1.833,1.8332,1.8355,1.8334,1.8341,1.8362,1.8365,1.8398,1.836,1.839,1.8391,1.8387,1.8466,1.8479,1.8538,1.844,1.8441,1.8442,0,1.8237,1.8256,1.8309,1.8321,1.8331,1.8355,1.8376,1.8396,1.8409,1.8409,1.8423,1.8413,1.8444,1.8415,1.8458,1.8432,1.8444,1.8448,1.845,1.8452,1.842,1.8471,1.8557,1.8565,1.8455,1.8454,1.8453,0,1.829,1.8327,1.8364,1.8373,1.8388,1.8405,1.8412,1.8424,1.8438,1.8456,1.8465,1.8486,1.8497,1.8514,1.851,1.8489,1.8554,1.8525,1.8555,1.8555,1.8568,1.8568,1.8658,1.8577,1.8576,1.8576,1.8576,0,1.8356,1.8389,1.8388,1.8411,1.8448,1.8442,1.8479,1.8484,1.8495,1.8519,1.8506,1.8528,1.8522,1.8544,1.8542,1.8578,1.8583,1.8584,1.8583,1.8585,1.8585,1.8592,1.8588,1.8579,1.8578,1.8578,1.8577,0,1.842,1.842,1.846,1.8472,1.8475,1.8502,1.8512,1.8534,1.8535,1.8565,1.8572,1.8574,1.86,1.8598,1.8627,1.8625,1.867,1.8664,1.8665,1.8664,1.8694,1.8692,1.8792,1.8805,1.8716,1.8717,1.8717,0,1.8462,1.8487,1.8502,1.8518,1.8526,1.8551,1.8565,1.8561,1.8577,1.8595,1.8615,1.8639,1.8658,1.87,1.8704,1.8726,1.872,1.8754,1.8724,1.8725,1.8721,1.872,1.8723,1.876,1.8761,1.8762,1.8763,0,1.8537,1.8537,1.8558,1.8581,1.8599,1.8616,1.8632,1.8645,1.8642,1.8661,1.8687,1.8702,1.8732,1.8757,1.8778,1.8785,1.8774,1.8773,1.8781,1.8783,1.8783,1.8784,1.8682,1.877,1.8769,1.8769,1.8768,1.8768,1.8591,1.8614,1.8628,1.8653,1.8665,1.868,1.8702,1.8707,1.8729,1.8753,1.875,1.8779,1.8793,1.8821,1.883,1.8853,1.8841,1.8853,1.8856,1.8859,1.8862,1.878,1.8857,1.8857,1.8857,1.8856,1.8856,0,1.8666,1.8675,1.8698,1.8721,1.8741,1.873,1.8747,1.8764,1.8791,1.8805,1.8825,1.8856,1.888,1.8887,1.891,1.8928,1.8923,1.8934,1.8932,1.8934,1.8872,1.8862,1.8937,1.8937,1.8937,1.8937,1.8937,1.8937,1.8707,1.8745,1.8746,1.879,1.8798,1.8828,1.8839,1.8853,1.8865,1.89,1.892,1.8925,1.8936,1.8961,1.8983,1.8984,1.8993,1.9006,1.9005,1.8947,1.8939,1.8931,1.8922,1.9008,1.9008,1.9066,1.9067,1.9067]}]]